Presure
149 183 175 183 189 195 202 181 136 125 132 173 177 198 154 128 160 171 126 144 145 153 168 169 138 161 162 170 173 171 131 166 156 155 137 133 153 171 124 134 133 130 145 129 129
141 175 158 182 182 183 187 195 201 181 178 129 137 171 182 188 135 162 157 127 147 146 135 163 167 155 152 160 161 141 179 150 168 146 154 117 139 135 190 174 170 150 144 117 117
155 217 224 222 173 218 179 184 188 200 198 174 160 145 178 171 162 133 161 130 133 149 155 143 172 167 157 155 156 149 147 175 173 128 140 133 132 122 145 119 118 108 140 138 131
128 133 135 219 221 214 182 176 184 204 195 204 183 181 130 145 187 169 139 168 149 134 134 153 173 165 161 159 134 129 144 132 149 135 128 133 123 137 141 150 112 90 136 140 126
137 133 134 135 174 168 215 209 214 205 192 192 204 189 182 159 143 186 173 134 172 147 137 146 155 154 161 143 154 154 167 128 129 163 141 139 144 125 122 130 131 130 138 137 118
122 131 128 134 135 215 199 209 211 216 221 191 194 204 207 186 174 148 151 171 152 168 135 136 143 156 146 156 137 143 126 148 147 147 135 140 139 99 134 119 134 135 138 123 126
142 126 139 137 136 139 228 149 222 227 215 222 210 198 205 216 183 278 148 144 172 158 173 147 140 134 163 158 155 137 155 143 143 137 139 128 120 145 136 130 139 138 126 146 145
144 153 140 142 136 135 237 245 231 220 224 221 220 191 190 198 217 179 274 150 143 173 155 169 148 147 142 151 166 142 150 145 143 120 122 143 126 127 137 114 145 146 146 143 131
152 149 129 135 141 134 178 215 215 238 220 217 226 238 265 261 222 221 182 260 165 160 173 161 164 143 143 143 134 133 136 139 127 131 123 124 131 133 135 143 134 135 141 97 130
153 154 208 135 141 176 215 214 210 217 233 226 227 232 261 251 307 193 242 185 220 169 146 170 167 162 183 139 147 120 119 123 128 124 128 137 145 142 154 156 125 140 142 99 107
158 213 142 150 124 175 137 208 145 218 227 220 222 240 257 248 247 201 271 234 186 205 169 156 145 172 163 162 167 153 154 151 149 147 144 147 155 164 151 139 101 151 152 152 154
172 222 235 178 206 196 148 133 128 221 219 225 223 235 256 248 272 273 273 253 215 231 201 174 158 152 140 153 163 168 169 165 159 158 160 165 166 162 144 142 156 134 157 159 167
239 226 231 125 144 133 132 136 216 214 223 226 222 226 257 245 285 282 271 259 236 187 178 201 173 184 153 153 139 150 157 162 164 156 151 144 144 148 153 151 146 160 162 202 165
264 254 244 233 215 121 123 159 137 221 216 225 222 221 240 246 287 277 266 260 246 228 183 198 197 176 177 157 156 158 151 146 145 144 145 149 155 150 149 157 165 169 208 154 207
263 258 254 251 246 126 137 133 126 234 221 212 218 223 237 241 279 266 256 254 245 234 241 184 178 196 185 169 168 161 153 154 152 150 148 147 151 158 165 167 180 178 154 226 223
244 263 265 163 163 126 134 138 141 222 231 223 218 229 233 239 266 257 252 243 237 233 226 239 205 180 183 187 176 172 164 161 160 159 158 159 164 158 167 171 202 171 201 207 201
240 243 255 258 188 126 132 140 224 220 224 225 215 236 233 231 255 251 243 237 235 230 231 223 240 238 204 168 184 185 176 172 167 165 163 165 178 168 177 206 196 207 190 194 179
239 240 246 248 127 126 135 133 233 237 237 230 221 239 234 229 251 244 238 232 229 230 223 223 228 235 231 216 180 173 182 184 183 178 174 173 170 176 178 174 207 183 183 176 190
316 309 229 228 127 199 138 140 250 228 225 244 235 246 233 228 247 242 236 230 226 224 222 224 222 232 235 230 227 174 199 189 182 179 183 179 166 194 160 213 195 207 198 199 205
316 303 386 201 237 228 134 226 224 226 234 239 243 248 233 226 230 242 234 228 222 223 226 223 217 215 231 234 204 230 224 161 163 206 209 169 190 207 199 203 200 196 186 171 188
297 306 316 298 282 241 235 233 230 225 231 240 247 245 237 223 218 224 227 228 227 226 222 219 217 214 215 229 234 212 207 178 181 207 177 169 191 193 188 204 200 197 189 178 181
299 292 311 308 281 278 269 254 244 238 238 245 245 236 236 220 216 218 217 218 220 222 227 222 222 222 210 205 203 213 221 203 175 176 169 197 189 182 185 201 203 192 189 189 180
174 316 295 311 284 280 276 264 251 253 245 240 238 226 234 217 215 213 216 211 207 208 213 218 220 220 215 213 213 200 195 197 188 177 207 188 195 172 187 190 196 196 185 158 167
283 271 277 284 299 285 269 261 258 256 244 235 233 222 196 216 215 205 206 209 208 207 216 207 212 214 217 215 216 215 212 186 211 203 194 182 181 187 180 146 176 178 184 169 177
267 287 294 275 277 287 294 266 261 253 238 236 231 226 234 227 213 216 208 208 208 210 216 222 221 211 234 233 219 205 209 214 203 193 170 186 175 172 199 178 181 175 185 182 196
267 276 279 286 280 273 281 291 262 253 238 237 231 225 232 233 208 211 210 205 206 207 215 208 219 222 226 222 212 216 214 203 192 187 187 183 175 174 181 186 181 171 178 180 162
267 262 282 274 269 275 272 279 287 260 246 231 233 204 237 234 225 199 215 208 205 211 210 210 212 212 215 211 206 202 204 195 186 187 183 177 176 182 171 166 167 178 196 177 172
Wind_Speed
4 18 15 18 21 23 25 27 14 10 13 27 33 38 25 17 24 28 19 25 26 28 29 29 26 32 35 33 29 30 12 29 28 29 18 6 11 37 10 10 10 9 12 12 15
4 13 10 19 20 21 24 26 28 30 31 13 15 30 35 36 22 25 26 22 29 28 21 30 32 33 37 37 36 21 32 22 33 30 29 7 11 11 35 30 29 20 18 8 7
9 20 22 24 16 23 22 25 27 30 33 32 26 23 33 33 31 23 28 26 26 33 33 25 36 40 39 36 39 35 20 37 39 6 19 12 11 10 14 2 7 4 18 18 20
7 7 7 23 23 24 24 23 27 29 32 34 35 34 21 25 39 35 28 34 35 27 23 32 36 40 41 42 14 8 24 11 27 15 10 11 9 14 16 22 8 1 22 24 21
9 9 9 9 17 16 24 25 26 29 33 33 35 36 36 30 24 39 38 26 38 36 28 31 36 33 43 28 35 38 43 16 18 40 24 20 25 10 9 16 17 20 29 28 19
8 11 11 12 11 26 25 26 28 28 26 34 34 37 40 38 33 30 32 39 37 39 29 28 32 38 33 42 23 25 14 33 32 35 20 23 22 0 22 16 25 27 33 23 22
16 12 14 14 15 14 30 16 28 28 27 24 32 38 39 40 36 44 34 34 43 40 42 38 35 27 45 44 35 23 46 29 30 21 26 16 10 30 23 25 33 34 28 43 42
17 22 15 16 16 15 26 26 27 28 28 27 30 38 35 38 41 39 45 39 37 46 41 43 42 40 33 39 45 35 45 36 31 14 15 31 22 22 27 17 37 39 44 45 34
24 22 14 15 17 16 22 25 25 24 26 28 28 27 22 33 38 42 43 50 46 43 46 46 47 37 35 36 32 30 29 30 19 27 20 21 27 27 29 37 35 35 44 9 27
26 27 31 17 17 24 28 27 26 26 25 26 27 27 20 27 31 40 45 46 54 47 41 50 47 45 48 37 45 21 18 17 22 27 28 34 38 34 44 42 16 37 41 12 9
29 34 22 21 17 25 15 30 18 28 27 26 26 24 19 28 30 43 40 49 49 52 48 46 38 46 45 47 50 49 50 45 44 48 42 47 48 46 41 37 4 40 40 41 45
30 38 37 29 31 30 17 15 16 30 27 27 25 24 21 26 25 35 38 47 49 49 53 52 45 43 39 46 50 50 50 47 47 46 46 47 44 41 39 35 40 28 42 41 44
43 40 38 20 22 15 14 19 32 31 29 27 26 24 22 25 22 34 38 43 50 50 50 53 50 50 46 48 41 43 44 42 44 41 41 38 37 38 40 41 41 42 40 34 40
42 42 41 37 34 13 17 22 21 32 29 26 27 23 22 24 23 33 37 40 46 50 50 53 53 52 53 49 47 47 44 43 40 38 38 39 40 39 40 44 44 41 32 37 24
38 38 39 38 37 14 18 21 19 32 30 27 27 24 23 23 26 29 34 36 39 48 44 51 51 54 51 50 50 49 45 45 43 39 40 38 41 41 42 41 41 38 37 19 15
34 35 36 29 25 14 17 22 23 32 30 29 29 27 23 20 24 29 32 34 38 41 46 42 52 48 50 52 50 52 49 46 43 42 42 43 40 41 41 39 23 35 27 20 23
38 35 33 36 28 14 18 22 36 33 32 29 31 28 23 22 25 28 30 35 39 41 42 45 41 43 53 49 51 50 49 45 43 42 42 40 35 39 38 20 23 21 23 25 22
38 35 33 36 18 16 19 22 37 35 33 34 31 28 25 23 24 28 31 34 34 34 37 40 40 39 43 50 51 48 47 42 40 39 38 37 35 37 34 33 18 26 27 24 25
28 34 36 38 18 29 21 25 36 30 30 33 32 31 28 26 25 28 29 30 30 34 40 38 39 39 39 41 44 45 43 39 39 41 40 38 36 29 40 23 24 17 13 10 9
23 25 29 33 42 40 23 35 34 32 32 30 31 32 28 24 21 24 28 30 33 36 35 35 37 37 38 38 43 40 37 45 43 33 31 38 29 21 28 28 28 25 23 24 14
19 20 22 39 44 45 45 39 37 33 31 30 31 31 28 25 24 22 24 27 31 31 33 34 36 39 38 33 33 36 38 41 40 33 40 42 32 31 32 25 35 34 29 24 20
14 15 19 33 39 44 47 42 39 37 33 31 30 29 28 28 27 25 24 23 21 26 31 30 32 34 36 36 36 34 35 37 46 44 44 35 37 39 36 33 31 33 30 25 28
21 12 18 25 35 38 36 35 39 39 32 29 29 30 30 31 31 28 26 26 25 24 27 30 34 36 36 36 39 42 42 40 42 43 38 41 40 49 42 37 35 28 29 27 17
9 10 11 15 23 33 33 36 38 37 32 32 33 34 25 35 33 30 29 30 30 27 26 24 26 29 31 33 35 37 36 40 37 39 41 43 43 44 43 23 26 26 32 29 27
9 9 11 14 14 19 29 36 36 38 34 35 37 35 37 38 34 34 33 33 32 29 26 27 27 29 29 33 36 38 37 37 41 46 44 43 46 45 50 39 35 24 37 32 38
8 9 11 10 13 13 20 29 36 41 38 36 39 35 35 39 33 36 36 35 35 33 29 31 29 29 31 34 37 37 36 39 45 49 46 45 50 47 45 46 38 28 34 36 25
6 7 8 10 12 15 20 24 32 41 41 36 40 29 37 38 38 35 38 40 38 36 33 34 35 34 35 36 38 37 41 45 48 49 49 50 49 51 41 38 31 34 48 39 28
Wind_Direction
299 256 258 252 249 246 243 242 236 231 242 237 235 235 226 222 217 218 220 214 221 220 216 212 223 209 216 213 206 219 227 229 220 236 236 301 328 255 246 251 261 253 258 287 293
309 264 269 255 253 251 248 245 242 240 237 233 235 234 232 231 224 214 213 231 220 226 219 215 210 216 224 217 213 242 220 229 225 227 229 205 266 262 258 271 283 275 279 277 306
278 265 262 261 263 255 250 248 247 243 241 238 238 239 234 228 227 219 210 229 230 224 224 222 213 210 219 225 225 228 256 218 221 203 243 238 242 257 290 360 348 156 269 273 288
279 285 291 260 260 254 254 252 250 243 244 241 239 238 227 231 227 224 225 213 219 238 232 223 216 213 217 221 242 220 251 217 242 247 215 245 273 271 274 292 338 116 294 287 281
269 278 284 288 266 272 256 248 246 245 247 244 240 240 236 234 227 223 222 231 217 226 239 230 224 223 217 240 232 235 221 236 240 240 262 267 279 261 286 284 289 290 288 288 291
266 278 286 288 289 261 254 258 259 246 247 246 244 239 237 235 231 227 226 223 222 222 241 239 234 227 232 225 253 254 238 243 252 257 264 272 278 87 286 290 295 295 294 297 315
276 272 277 280 288 292 268 277 261 258 246 252 240 241 238 236 233 229 228 229 225 223 218 230 239 248 223 223 234 254 229 252 252 256 264 269 300 271 281 291 286 291 288 285 286
277 279 272 275 279 286 271 270 266 258 254 256 245 243 240 239 233 230 227 229 229 228 224 219 232 235 242 231 222 246 238 249 257 280 262 270 283 291 284 277 283 279 281 284 291
275 278 263 268 272 277 273 263 262 270 255 251 253 256 254 238 235 229 228 225 229 228 226 225 225 241 239 239 248 252 252 252 269 267 280 291 284 283 281 278 284 283 284 221 288
273 273 263 263 269 270 265 264 261 261 264 256 254 254 253 243 234 232 226 229 224 229 230 229 227 226 227 243 235 261 266 273 269 273 275 270 269 271 268 268 256 276 278 258 266
269 266 270 270 265 266 275 259 285 260 261 252 253 261 255 245 237 230 228 226 229 227 229 234 234 228 228 229 229 232 235 240 244 249 257 260 260 261 262 268 180 273 276 278 284
267 263 261 266 261 262 272 286 282 259 259 259 258 262 265 248 248 229 224 226 228 226 227 231 233 233 235 234 233 233 235 235 237 241 246 252 257 264 268 268 275 280 281 282 282
259 259 259 255 258 266 279 275 257 257 259 258 258 261 269 252 238 226 220 220 224 227 229 228 232 230 234 236 242 240 240 239 241 244 250 257 264 268 272 276 274 276 279 279 284
257 255 254 254 257 270 275 267 280 255 258 261 261 261 268 258 228 221 221 218 220 224 229 227 228 231 230 236 239 240 242 244 248 251 255 259 262 266 267 271 276 281 279 285 275
260 255 252 251 249 262 267 273 283 251 253 251 256 257 265 253 218 212 218 219 218 221 222 229 229 229 232 236 237 243 245 247 250 253 258 260 263 266 271 275 281 283 282 297 299
264 259 249 262 248 266 271 273 279 248 249 248 253 256 258 251 218 213 211 214 217 221 223 223 228 229 232 234 236 239 242 246 249 251 254 259 264 269 273 275 278 281 294 291 298
258 255 250 241 245 272 274 276 244 245 247 248 247 252 246 241 223 214 210 212 216 218 220 224 227 227 231 230 235 237 239 242 245 248 251 256 262 264 266 261 269 260 280 290 281
253 249 242 239 267 273 273 276 243 244 246 245 245 244 240 239 225 216 212 214 220 218 220 224 225 225 225 229 232 235 237 239 242 246 247 250 252 258 257 261 240 264 267 274 272
249 242 240 239 268 242 270 275 236 240 244 241 242 233 232 232 217 212 214 218 222 223 222 221 223 224 225 226 230 237 238 241 241 243 242 243 246 252 256 209 240 193 214 234 233
245 239 224 243 236 239 267 242 243 243 244 243 238 227 229 229 233 214 216 216 217 221 222 221 220 224 225 224 231 230 233 236 238 229 232 243 243 224 237 233 220 214 224 254 227
246 236 227 219 224 234 237 238 241 240 242 241 235 223 222 220 221 214 215 222 227 223 222 223 222 222 222 224 228 231 231 235 234 217 238 242 230 229 240 233 213 211 211 223 222
237 229 217 211 217 221 227 232 237 238 235 231 229 220 217 215 217 215 212 214 224 232 228 226 228 226 223 221 218 220 222 222 231 233 241 217 223 235 237 232 230 222 219 218 229
251 217 216 212 215 218 219 218 222 224 222 222 223 216 214 213 214 212 214 208 207 216 224 222 224 222 221 219 217 219 220 221 226 231 215 224 216 246 236 237 236 228 226 250 254
223 228 231 225 217 219 213 209 212 216 212 213 212 213 226 213 214 217 215 216 212 209 224 226 227 228 225 224 224 224 222 225 220 219 221 228 236 229 251 235 251 258 247 246 246
222 201 197 210 222 214 210 210 209 209 209 211 212 215 212 213 217 214 215 217 219 216 213 219 219 217 222 215 216 215 217 216 218 221 232 222 232 238 223 253 252 260 250 254 249
235 217 196 193 194 190 204 207 207 206 209 211 215 214 220 213 218 217 218 221 221 217 212 218 217 219 218 213 214 215 214 213 218 224 225 223 231 237 235 241 245 268 260 258 240
263 249 210 207 201 188 194 203 205 205 208 210 214 226 217 218 214 219 219 221 223 220 215 217 220 216 212 211 212 214 213 214 221 225 228 228 233 237 240 243 246 262 246 250 256